[[{"header":{"parameterUnit":"m.s-1","parameterCategory":1,"la1":30.2991,"la2":30.254,"lo1":-89.0895,"lo2":-89.0444,"dy":0.0017,"dx":0.0017,"nx":28,"ny":28,"refTime":"2024-06-29T21:00:00:Z","depth":0,"parameterNumber":2,"parameterNumberName":"U-component_of_WINDS"},"data":[0,0,0,0,0,0,0,0,0,0,0,0,0,0,0,0,0,0,0,0,0,0,0,0,0,0,0,0,0,0,0,0,0,0,0,0,0,0,0,0,0,0,0,0,0,0,0,0,0,0,0,0,0,0,0,0,0,0,-0.334,-0.3338,0,-0.3198,-0.3197,-0.3195,-0.3111,-0.3111,-0.311,-0.311,-0.2961,-0.2958,-0.2954,0,0,0,0,0,0,0,0,0,0,0,0,0,-0.3534,-0.3531,-0.334,-0.3338,-0.3336,-0.3199,-0.3197,-0.3195,-0.3111,-0.311,-0.311,-0.311,-0.2963,-0.2958,-0.2954,0,0,0,0,0,0,0,0,0,0,0,0,0,-0.3427,-0.353,-0.334,-0.3278,-0.3271,-0.3199,-0.3197,-0.3194,-0.3111,-0.311,-0.311,-0.3109,-0.2964,-0.2959,-0.2954,-0.2931,0,0,-0.2937,-0.2935,0,0,0,0,0,0,0,0,-0.3433,-0.342,-0.3289,-0.3282,-0.3274,-0.3172,-0.3211,-0.3106,-0.3111,-0.3172,-0.311,-0.3109,-0.3032,-0.3021,-0.2995,-0.2924,-0.2918,-0.2937,-0.2933,-0.2931,-0.2929,0,0,0,0,0,0,0,-0.344,-0.3425,-0.3284,-0.3287,-0.3278,-0.3256,-0.324,-0.319,-0.3106,-0.3166,-0.316,-0.3145,-0.3028,-0.3001,-0.2991,-0.2916,-0.2937,-0.2932,-0.2929,-0.2926,-0.2818,-0.2818,0,0,0,0,0,0,-0.3458,-0.3432,-0.3288,-0.3279,-0.3354,-0.3253,-0.3235,-0.3205,-0.3107,-0.3091,-0.3145,-0.3141,-0.301,-0.2998,-0.2986,-0.2952,-0.2931,-0.2926,-0.2923,-0.2818,-0.2818,-0.2818,0,0,0,0,0,0,-0.3463,-0.3446,-0.3294,-0.3354,-0.3333,-0.325,-0.3217,-0.3203,-0.3176,-0.3091,-0.3075,-0.3133,-0.3009,-0.2993,-0.2945,-0.2946,-0.2923,-0.2919,-0.2817,-0.2818,-0.2818,-0.2885,0,0,0,0,0,0,-0.3469,-0.3448,-0.344,-0.3354,-0.333,-0.3257,-0.3217,-0.32,-0.3167,-0.316,-0.3075,-0.3061,-0.3008,-0.2954,-0.294,-0.2938,-0.2914,-0.2817,-0.2817,-0.2818,-0.2883,-0.2888,-0.2893,0,0,0,0,0,-0.3476,-0.3464,-0.344,-0.3423,-0.3318,-0.3257,-0.3243,-0.3183,-0.3168,-0.3157,-0.3103,-0.3064,-0.2948,-0.295,-0.2933,-0.2929,-0.2816,-0.2817,-0.2818,-0.288,-0.2887,-0.2893,0,0,0,0,0,0,-0.355,-0.3451,-0.3424,-0.3384,-0.333,-0.3243,-0.3229,-0.3192,-0.3141,-0.3136,-0.3063,-0.3045,-0.3004,-0.2962,-0.2965,-0.2902,-0.2878,-0.2875,-0.2931,-0.2936,-0.2941,-0.2951,-0.291,0,0,0,0,0,-0.3562,-0.3523,-0.3438,-0.3411,-0.3385,-0.3312,-0.3284,-0.3242,-0.3183,-0.3159,-0.3101,-0.3044,-0.2994,-0.2963,-0.2913,-0.2877,-0.2856,-0.2866,-0.2871,-0.2876,-0.2874,-0.285,-0.2853,-0.2821,-0.2821,-0.2821,0,0,-0.3586,-0.3527,-0.3506,-0.3424,-0.3377,-0.3337,-0.3293,-0.3252,-0.3221,-0.3152,-0.3103,-0.3059,-0.299,-0.2948,-0.2926,-0.2912,-0.2878,-0.2877,-0.2881,-0.2876,-0.2851,-0.2854,-0.2857,-0.2822,-0.2822,-0.2822,0,0,-0.3608,-0.356,-0.3532,-0.3486,-0.3417,-0.3368,-0.3362,-0.3281,-0.3249,-0.3199,-0.3146,-0.3108,-0.3025,-0.2977,-0.2943,-0.2948,-0.2909,-0.2934,-0.2959,-0.2937,-0.2939,-0.2941,-0.2942,-0.2943,-0.2932,-0.2933,-0.2933,0,-0.3646,-0.3584,-0.3522,-0.3484,-0.3449,-0.3386,-0.3356,-0.3315,-0.3232,-0.3208,-0.3194,-0.3088,-0.3037,-0.2982,-0.2984,-0.2958,-0.2947,-0.2942,-0.2944,-0.2946,-0.2946,-0.2946,-0.2946,-0.2936,-0.2936,-0.2935,-0.2935,0,-0.3633,-0.3591,-0.3576,-0.3499,-0.3462,-0.3428,-0.336,-0.333,-0.3293,-0.3245,-0.3195,-0.3132,-0.3068,-0.3052,-0.3015,-0.2992,-0.2985,-0.2959,-0.2932,-0.2954,-0.2952,-0.2951,-0.2941,-0.294,-0.2939,-0.2938,0,0,-0.3696,-0.3586,-0.3582,-0.3545,-0.3464,-0.3429,-0.3393,-0.3331,-0.3306,-0.3251,-0.3217,-0.3149,-0.3124,-0.3085,-0.3041,-0.3022,-0.3028,-0.2997,-0.2995,-0.3004,-0.2998,-0.3017,-0.3018,-0.3003,-0.3003,-0.3003,-0.3003,0,-0.3705,-0.3637,-0.3581,-0.3533,-0.3492,-0.3432,-0.34,-0.3346,-0.3301,-0.3259,-0.3209,-0.3161,-0.3133,-0.3108,-0.3087,-0.3032,-0.3026,-0.3032,-0.2969,-0.2968,-0.2987,-0.3017,-0.3037,-0.3041,-0.3002,-0.3002,-0.3002,0,-0.3707,-0.3655,-0.3604,-0.3526,-0.3507,-0.3479,-0.3417,-0.3379,-0.3316,-0.3285,-0.3241,-0.3196,-0.3153,-0.3133,-0.3072,-0.3077,-0.3048,-0.3018,-0.3016,-0.3006,-0.2985,-0.3007,-0.3041,-0.3041,-0.3001,-0.3001,-0.3001,0,-0.3756,-0.3674,-0.3632,-0.3603,-0.3512,-0.3494,-0.3455,-0.3392,-0.3358,-0.3305,-0.3282,-0.3224,-0.3191,-0.3147,-0.3087,-0.3078,-0.3031,-0.3006,-0.3003,-0.3004,-0.2994,-0.2995,-0.3022,-0.2979,-0.2979,-0.2979,-0.2979,0,-0.3771,-0.3742,-0.3653,-0.3628,-0.3592,-0.3528,-0.3494,-0.345,-0.3394,-0.3358,-0.3303,-0.3269,-0.3193,-0.315,-0.3103,-0.3059,-0.3045,-0.3017,-0.3005,-0.3021,-0.3024,-0.3,-0.2997,-0.2979,-0.2979,-0.2979,-0.2979,0,-0.382,-0.376,-0.371,-0.3629,-0.3608,-0.3585,-0.3514,-0.3486,-0.3439,-0.3393,-0.3379,-0.3304,-0.3251,-0.3187,-0.3113,-0.3081,-0.3041,-0.3023,-0.3062,-0.3054,-0.3054,-0.3054,-0.3064,-0.3062,-0.3023,-0.3023,-0.3024,0,-0.3833,-0.3809,-0.3725,-0.3697,-0.366,-0.3616,-0.3582,-0.3517,-0.3483,-0.341,-0.3391,-0.3334,-0.3285,-0.3202,-0.314,-0.3083,-0.3062,-0.307,-0.3053,-0.307,-0.306,-0.3062,-0.3058,-0.3074,-0.3075,-0.3075,-0.3076,0,-0.3861,-0.3833,-0.3786,-0.3729,-0.369,-0.3642,-0.3591,-0.3571,-0.3496,-0.3461,-0.3407,-0.3369,-0.3293,-0.3237,-0.3172,-0.313,-0.309,-0.3082,-0.3078,-0.3093,-0.3116,-0.3102,-0.3072,-0.3081,-0.3081,-0.308,-0.308,-0.308,-0.3891,-0.3866,-0.3804,-0.3753,-0.3709,-0.3663,-0.3632,-0.3582,-0.3535,-0.347,-0.3434,-0.338,-0.3317,-0.3226,-0.3186,-0.3142,-0.3128,-0.3122,-0.3121,-0.312,-0.3124,-0.3125,-0.313,-0.313,-0.313,-0.313,-0.313,0,-0.3915,-0.3872,-0.3827,-0.3758,-0.3718,-0.3686,-0.3628,-0.3596,-0.355,-0.3495,-0.3448,-0.3385,-0.333,-0.3265,-0.3205,-0.3183,-0.3163,-0.3169,-0.3169,-0.316,-0.3141,-0.315,-0.3186,-0.3186,-0.3186,-0.3186,-0.3186,-0.3186,-0.3923,-0.3879,-0.3844,-0.3777,-0.3734,-0.3681,-0.3651,-0.3608,-0.3564,-0.3496,-0.3451,-0.3409,-0.3349,-0.3285,-0.3233,-0.3215,-0.3195,-0.3206,-0.3183,-0.3166,-0.3161,-0.3156,-0.3164,-0.3203,-0.3203,-0.3205,-0.3205,-0.3205]},{"header":{"parameterUnit":"m.s-1","parameterCategory":1,"la1":30.2991,"la2":30.254,"lo1":-89.0895,"lo2":-89.0444,"dy":0.0017,"dx":0.0017,"nx":28,"ny":28,"refTime":"2024-06-29T21:00:00:Z","depth":0,"parameterNumber":3,"parameterNumberName":"V-component_of_WINDS"},"data":[0,0,0,0,0,0,0,0,0,0,0,0,0,0,0,0,0,0,0,0,0,0,0,0,0,0,0,0,0,0,0,0,0,0,0,0,0,0,0,0,0,0,0,0,0,0,0,0,0,0,0,0,0,0,0,0,0,0,3.3474,3.3473,0,3.3434,3.3434,3.3433,3.3438,3.3438,3.3439,3.344,3.3394,3.3392,3.339,0,0,0,0,0,0,0,0,0,0,0,0,0,3.3549,3.3548,3.3474,3.3473,3.3473,3.3434,3.3434,3.3433,3.3438,3.3438,3.3439,3.344,3.3395,3.3392,3.339,0,0,0,0,0,0,0,0,0,0,0,0,0,3.3513,3.3547,3.3474,3.3471,3.347,3.3434,3.3433,3.3433,3.3437,3.3438,3.3439,3.344,3.3395,3.3393,3.339,3.3354,0,0,3.3382,3.338,0,0,0,0,0,0,0,0,3.3515,3.3511,3.3472,3.3471,3.347,3.3442,3.3443,3.3406,3.3437,3.345,3.344,3.3441,3.3409,3.3405,3.3395,3.3351,3.3349,3.3381,3.338,3.3379,3.3378,0,0,0,0,0,0,0,3.3518,3.3512,3.3458,3.3471,3.347,3.3469,3.3466,3.3436,3.3424,3.3449,3.3449,3.3444,3.3409,3.3398,3.3394,3.3349,3.3381,3.3379,3.3377,3.3376,3.3272,3.3271,0,0,0,0,0,0,3.3522,3.3514,3.3459,3.3457,3.3496,3.3467,3.3463,3.345,3.3424,3.3422,3.3444,3.3445,3.3402,3.3397,3.3393,3.3348,3.3379,3.3376,3.3374,3.3273,3.3272,3.3271,0,0,0,0,0,0,3.3524,3.3517,3.3461,3.3486,3.3479,3.3465,3.345,3.3449,3.3438,3.3421,3.3418,3.3435,3.3403,3.3397,3.3363,3.3346,3.3375,3.3372,3.3274,3.3273,3.3271,3.3258,0,0,0,0,0,0,3.3526,3.3518,3.3505,3.3485,3.3477,3.3434,3.3449,3.3447,3.3434,3.3435,3.3412,3.3409,3.3403,3.3367,3.3361,3.3343,3.337,3.3276,3.3274,3.3272,3.326,3.3257,3.3253,0,0,0,0,0,3.3528,3.3502,3.3504,3.3497,3.3461,3.3433,3.3428,3.3423,3.3433,3.3419,3.3407,3.341,3.3349,3.3364,3.3356,3.3338,3.3277,3.3274,3.3272,3.3262,3.3257,3.3253,0,0,0,0,0,0,3.3518,3.3499,3.3502,3.3468,3.3452,3.3434,3.3416,3.3418,3.3397,3.3399,3.3392,3.3387,3.3353,3.3342,3.3359,3.3301,3.3314,3.331,3.3309,3.3305,3.3301,3.3304,3.3368,0,0,0,0,0,3.3512,3.3492,3.3476,3.3448,3.344,3.343,3.3417,3.3414,3.3397,3.3389,3.3376,3.3357,3.3334,3.3319,3.3296,3.3259,3.3253,3.3242,3.3239,3.3236,3.3232,3.321,3.3205,3.3262,3.3262,3.3262,0,0,3.3499,3.3486,3.3474,3.3446,3.3433,3.3411,3.3424,3.34,3.3383,3.3385,3.3354,3.3343,3.3322,3.3286,3.3269,3.3276,3.3215,3.3233,3.323,3.3228,3.3207,3.3202,3.3197,3.326,3.3261,3.3261,0,0,3.3464,3.3453,3.3429,3.3416,3.3397,3.339,3.3384,3.3365,3.3359,3.3327,3.3328,3.3307,3.3267,3.3252,3.3239,3.3198,3.3199,3.3191,3.3172,3.3151,3.3147,3.3143,3.3128,3.3122,3.3187,3.3187,3.3187,0,3.345,3.3419,3.3415,3.3392,3.3379,3.3381,3.3355,3.3343,3.3316,3.3307,3.3315,3.3265,3.325,3.3211,3.3201,3.3191,3.3182,3.3193,3.3148,3.3144,3.314,3.3126,3.312,3.3186,3.3186,3.3186,3.3187,0,3.3402,3.338,3.3362,3.3339,3.3324,3.3299,3.329,3.3275,3.3274,3.3265,3.3232,3.3216,3.319,3.318,3.3178,3.314,3.3144,3.315,3.3163,3.3134,3.312,3.3114,3.3185,3.3185,3.3186,3.3186,0,0,3.336,3.3335,3.3329,3.3318,3.3297,3.3279,3.3254,3.323,3.3217,3.3198,3.3176,3.3142,3.3148,3.3133,3.3129,3.311,3.3078,3.3118,3.3118,3.3111,3.3035,3.303,3.3024,3.3079,3.3078,3.3077,3.3036,0,3.3323,3.328,3.3276,3.3237,3.3216,3.3218,3.3196,3.3179,3.3171,3.315,3.314,3.3116,3.3125,3.3116,3.3098,3.3086,3.3063,3.3089,3.3057,3.3056,3.3062,3.3017,3.3012,3.2975,3.3031,3.303,3.3029,0,3.3275,3.3257,3.3216,3.3198,3.3189,3.3169,3.3146,3.3127,3.3108,3.3103,3.3087,3.3085,3.3057,3.3072,3.3033,3.3051,3.3037,3.3029,3.3027,3.3024,3.3041,3.3012,3.2963,3.2957,3.3021,3.3021,3.3022,0,3.3248,3.3213,3.3184,3.3175,3.3153,3.3139,3.3128,3.3111,3.3096,3.3076,3.3067,3.3043,3.3029,3.301,3.3001,3.3013,3.2962,3.2976,3.2956,3.2956,3.2945,3.2946,3.2893,3.2937,3.2937,3.2937,3.2937,0,3.3207,3.3182,3.3172,3.3154,3.3125,3.312,3.3091,3.3081,3.3065,3.3044,3.3044,3.3024,3.3013,3.2991,3.2984,3.2952,3.2946,3.294,3.2938,3.294,3.2941,3.2931,3.2933,3.2936,3.2936,3.2936,3.2936,0,3.3172,3.3164,3.3133,3.3115,3.311,3.3089,3.3073,3.3055,3.3047,3.302,3.3013,3.2999,3.2973,3.2963,3.293,3.2925,3.2889,3.2889,3.2896,3.2895,3.2875,3.2877,3.2814,3.2805,3.2855,3.2854,3.2854,0,3.3147,3.3127,3.3108,3.3095,3.3084,3.3063,3.3049,3.3042,3.3027,3.3004,3.2988,3.2962,3.2942,3.29,3.2885,3.286,3.286,3.2839,3.2856,3.2858,3.2859,3.2861,3.2858,3.2836,3.2836,3.2835,3.2835,0,3.3102,3.3099,3.308,3.3059,3.3042,3.3025,3.3008,3.2996,3.2987,3.2969,3.2944,3.2928,3.2895,3.2869,3.2843,3.2831,3.2831,3.283,3.2824,3.2826,3.283,3.2827,3.2887,3.2831,3.2832,3.2832,3.2832,3.2832,3.3071,3.3054,3.3038,3.3016,3.3002,3.2986,3.2969,3.2958,3.2937,3.2911,3.2908,3.288,3.286,3.2826,3.2813,3.279,3.2795,3.2786,3.2784,3.2782,3.278,3.2834,3.2785,3.2785,3.2785,3.2785,3.2785,0,3.3026,3.3016,3.2996,3.2973,3.2955,3.2958,3.2939,3.2924,3.29,3.2882,3.2862,3.2832,3.2807,3.2791,3.2765,3.2749,3.2748,3.2743,3.2744,3.2741,3.2777,3.2785,3.2744,3.2744,3.2744,3.2744,3.2744,3.2744,3.3001,3.2973,3.2968,3.2932,3.2921,3.2895,3.2884,3.2869,3.2855,3.2822,3.2801,3.2792,3.2774,3.2747,3.2723,3.2719,3.271,3.2703,3.2699,3.2734,3.2738,3.2742,3.275,3.2701,3.2701,3.2665,3.2664,3.2664]}]]